This is the latest recevied weather packets stored in our database for station/object KE4EST. If no packets are shown the sender has not sent any weather packets the latest 1 day(s).
| Time | Temp. | Humidity | Pressure | Rain* | Wind** | Luminosity | Snow |
|---|---|---|---|---|---|---|---|
| 1778030956 | 16.67° C | 70% | 1013.7 hPa | 0 mm | 0 m/s | 0 W/m² | - |
| 1778030653 | 16.67° C | 69% | 1013.4 hPa | 0 mm | 0 m/s | 0 W/m² | - |
| 1778030350 | 16.67° C | 70% | 1013.6 hPa | 0 mm | 0 m/s | 0 W/m² | - |
| 1778030047 | 16.67° C | 69% | 1013.5 hPa | 0 mm | 0 m/s | 0 W/m² | - |
| 1778029744 | 16.67° C | 67% | 1013.6 hPa | 0 mm | 0 m/s | 0 W/m² | - |
| 1778029442 | 17.22° C | 67% | 1013.7 hPa | 0 mm | 0 m/s | 0 W/m² | - |
| 1778029138 | 17.22° C | 63% | 1013.8 hPa | 0 mm | 0 m/s | 0 W/m² | - |
| 1778028836 | 17.78° C | 64% | 1013.8 hPa | 0 mm | 0 m/s | 0 W/m² | - |
| 1778028531 | 17.78° C | 60% | 1013.8 hPa | 0 mm | 0 m/s | 0 W/m² | - |
| 1778028230 | 17.78° C | 59% | 1014.1 hPa | 0 mm | 0 m/s | 0 W/m² | - |
| 1778027925 | 17.78° C | 59% | 1013.8 hPa | 0 mm | 0 m/s | 0 W/m² | - |
| 1778027621 | 17.78° C | 59% | 1014.2 hPa | 0 mm | 0 m/s | 0 W/m² | - |
| 1778027318 | 17.78° C | 59% | 1014.3 hPa | 0 mm | 0 m/s | 1 W/m² | - |
| 1778027014 | 18.33° C | 59% | 1014.2 hPa | 0 mm | 0 m/s | 1 W/m² | - |
| 1778026710 | 18.33° C | 59% | 1014.2 hPa | 0 mm | 0 m/s | 2 W/m² | - |
| 1778026407 | 17.78° C | 60% | 1014.1 hPa | 0 mm | 0 m/s | 2 W/m² | - |
| 1778026104 | 18.33° C | 59% | 1013.7 hPa | 0 mm | 0 m/s | 3 W/m² | - |
| 1778025802 | 18.33° C | 62% | 1013.8 hPa | 0 mm | 0 m/s | 6 W/m² | - |
| 1778025499 | 18.33° C | 61% | 1013.7 hPa | 0 mm | 0 m/s | 6 W/m² | - |
| 1778025196 | 18.89° C | 58% | 1013.9 hPa | 0 mm | 0 m/s | 4 W/m² | - |
| 1778024893 | 19.44° C | 56% | 1013.5 hPa | 0 mm | 0 m/s | 4 W/m² | - |
| 1778024591 | 20° C | 50% | 1013.6 hPa | 0 mm | 0 m/s | 4 W/m² | - |
| 1778024288 | 20° C | 49% | 1013.8 hPa | 0 mm | 0 m/s | 8 W/m² | - |
| 1778023985 | 20° C | 51% | 1013.7 hPa | 0 mm | 0 m/s | 11 W/m² | - |
| 1778023682 | 20° C | 49% | 1013.5 hPa | 0 mm | 0 m/s | 10 W/m² | - |
* Rain latest hour (hover to see other rain measurements)
** Current wind speed in m/s (hover to see current wind gust speed)